Location: Miami
(25.6830°N, 80.1700°W)
Time: 05:47:51
(UTC-04:00)

ISS - Visible Passes

Search period start: 25 April 2018 00:00
Search period end: 05 May 2018 00:00
Orbit: 403 x 406 km, 51.6° (Epoch: 25 April)

Date Brightness Start Highest point End Pass type
(mag) Time Alt. Az. Time Alt. Az. Time Alt. Az.
27 Apr -1.3 05:43:00 10° S 05:45:17 18° SE 05:47:35 10° E visible
29 Apr -3.5 05:35:30 28° SSW 05:36:58 61° SE 05:40:11 10° NE visible
30 Apr -1.5 04:45:38 21° E 04:45:38 21° E 04:47:27 10° ENE visible
30 Apr -1.8 06:18:56 10° W 06:21:11 17° NW 06:23:25 10° N visible
01 May -3.0 05:28:18 34° WNW 05:28:45 36° NW 05:31:47 10° NNE visible
02 May -1.5 04:38:12 24° NE 04:38:12 24° NE 04:39:40 10° NE visible
03 May -1.5 05:20:40 14° NW 05:20:40 14° NW 05:22:23 10° N visible
04 May -0.9 04:30:22 14° N 04:30:22 14° N 04:30:59 10° NNE visible
